DateTimeUTC,F1_A11,F1_S11,BsB_S11,BsG_S11,BsR_S11,BbsB_S11,BbsG_S11,BbsR_S11,BaB_A11,BaG_A11,BaR_A11,T_S11,U_S11,P_S11,T1_A11
2020-01-05T00:00:00Z,00000380,21000600,,,,,,,,,,23.8,00.0,0617.7,31.0
2020-01-05T00:01:00Z,00000380,21000600,,,,,,,,,,23.8,00.0,0617.7,31.0
2020-01-05T00:02:00Z,00000380,21000600,,,,,,,,,,23.8,00.0,0617.7,31.0
2020-01-05T00:03:00Z,00000380,61000600,,,,,,,,,,23.8,00.0,0617.7,31.0
2020-01-05T00:04:00Z,00000380,41000600,0001.05,0000.92,0000.51,-000.65,-000.65,0000.47,0000.00,0000.01,-000.05,23.6,00.0,0618.7,31.0
2020-01-05T00:05:00Z,00000380,01000600,-001.84,0001.38,-000.09,0000.15,-000.82,0000.46,-000.05,-000.04,-000.01,23.6,00.0,0618.7,30.9
2020-01-05T00:06:00Z,00000380,01000600,0000.46,0000.05,0000.40,-000.03,-000.56,0000.48,0000.10,0000.07,0000.08,23.6,00.0,0618.7,31.0
2020-01-05T00:07:00Z,00000380,01000600,-001.04,0000.26,0000.23,0000.23,-000.16,0000.34,-000.04,-000.05,-000.04,23.6,00.0,0618.7,31.0
2020-01-05T00:08:00Z,00000380,01000600,0001.32,0000.98,0000.04,0000.68,0000.05,0000.06,0000.03,-000.02,0000.02,23.6,00.0,0618.7,31.0
2020-01-05T00:09:00Z,00000380,01000600,-000.80,0000.78,0000.11,0000.79,-000.15,0000.14,0000.11,0000.01,0000.09,23.6,00.0,0618.7,30.9
2020-01-05T00:10:00Z,00000380,01000600,0001.98,0000.66,-000.11,0000.21,-000.28,-000.11,0000.01,-000.06,-000.15,23.6,00.0,0618.7,30.9
2020-01-05T00:11:00Z,00000380,01000600,-000.44,0001.29,0000.46,-000.11,0000.14,0000.02,-000.05,0000.17,0000.13,23.6,00.0,0618.7,30.9
2020-01-05T00:12:00Z,00000380,01000600,-000.45,0000.98,-000.04,0000.02,-000.05,-000.33,0000.13,0000.02,-000.04,23.6,00.0,0618.7,30.9
2020-01-05T00:13:00Z,00000380,01000600,0000.05,0000.04,-000.08,0000.78,-000.41,0000.74,-000.25,0000.06,-000.09,23.6,00.0,0618.7,31.0
2020-01-05T00:14:00Z,00000380,01000600,0000.44,0000.61,0000.46,0001.03,-000.39,0000.00,0000.11,-000.04,0000.10,23.6,00.0,0618.7,31.0
2020-01-05T00:15:00Z,00000380,01000600,-000.60,0000.19,-000.01,-000.16,-000.15,0000.39,0000.09,-000.09,-000.04,23.6,00.0,0618.7,30.9
2020-01-05T00:16:00Z,00000380,01000600,-000.18,0000.86,0000.33,0000.08,0000.12,0000.90,-000.09,-000.07,-000.00,23.6,00.0,0618.7,30.9
2020-01-05T00:17:00Z,00000380,01000600,-000.30,0000.74,0000.78,0001.24,-000.31,0000.32,0000.00,0000.04,-000.03,23.6,00.0,0618.7,30.9
2020-01-05T00:18:00Z,00000380,01000600,0000.46,0000.14,-000.05,-000.08,-000.35,-000.03,0000.04,0000.03,0000.08,23.6,00.0,0618.7,30.9
2020-01-05T00:19:00Z,00000380,01000600,-001.13,0000.87,-000.01,0001.15,-000.43,-000.01,0000.16,0000.11,0000.16,23.6,00.0,0618.7,30.9
2020-01-05T00:20:00Z,00000380,01000600,-000.28,0000.13,-000.12,-000.35,-000.10,0000.24,-000.00,-000.02,-000.04,23.6,00.0,0618.7,30.9
2020-01-05T00:21:00Z,00000380,01000600,0000.35,0000.57,0000.49,0000.02,-000.38,0000.47,0000.03,-000.01,-000.06,23.6,00.0,0618.7,30.9
2020-01-05T00:22:00Z,00000380,01000600,0000.35,0000.52,0000.33,-000.43,0000.09,0000.24,-000.09,0000.01,-000.07,23.6,00.0,0618.7,30.9
2020-01-05T00:23:00Z,00000380,01000600,0001.21,0001.19,0000.35,-000.36,-000.09,0000.38,0000.02,-000.06,-000.06,23.6,00.0,0618.7,30.9
2020-01-05T00:24:00Z,00000380,01000600,0000.19,0000.83,0000.20,-000.12,-000.28,-000.22,-000.05,-000.01,0000.02,23.6,00.0,0618.7,30.9
2020-01-05T00:25:00Z,00000380,01000600,0000.44,0000.79,0000.01,-000.07,-000.44,-000.08,-000.06,-000.04,0000.02,23.5,00.0,0618.7,30.9
2020-01-05T00:26:00Z,00000380,01000600,0001.73,0000.48,-000.03,0001.22,-000.38,0000.15,0000.01,0000.07,0000.02,23.6,00.0,0618.6,30.9
2020-01-05T00:27:00Z,00000380,01000600,0000.45,0000.43,0000.14,0000.73,-000.47,0000.38,-000.11,-000.08,-000.06,23.5,00.0,0618.6,30.9
2020-01-05T00:28:00Z,00000380,01000600,0002.24,0000.73,0000.02,-000.66,-000.25,0000.34,0000.13,-000.08,0000.00,23.5,00.0,0618.6,30.9
2020-01-05T00:29:00Z,00000380,01000600,-000.59,0000.91,0000.18,-000.07,0000.02,0000.31,-000.07,-000.03,0000.01,23.6,00.0,0618.6,30.9
2020-01-05T00:30:00Z,00000380,01000600,0000.87,0000.23,0000.07,-000.28,-000.04,0000.21,0000.06,0000.02,-000.02,23.5,00.0,0618.7,30.9
2020-01-05T00:31:00Z,00000380,01000600,0001.79,0000.54,0000.12,-000.65,-000.32,0000.30,-000.07,0000.05,0000.00,23.5,00.0,0618.7,30.9
2020-01-05T00:32:00Z,00000380,01000600,-000.97,0000.35,0000.16,0001.09,-000.34,0000.44,-000.05,0000.01,0000.01,23.5,00.0,0618.7,30.9
2020-01-05T00:33:00Z,00000380,01000600,0000.60,0000.59,0000.09,0001.02,-000.13,0000.21,0000.12,-000.15,-000.06,23.6,00.0,0618.6,30.9
2020-01-05T00:34:00Z,00000380,01000600,0000.83,0001.31,0000.05,0000.22,-000.07,0000.05,-000.04,0000.20,0000.05,23.5,00.0,0618.6,30.9
2020-01-05T00:35:00Z,00000380,01000600,0000.06,0001.03,0000.12,-000.53,0000.00,0000.40,0000.10,-000.10,0000.05,23.5,00.0,0618.6,30.9
2020-01-05T00:36:00Z,00000380,01000600,-000.57,0000.56,0000.59,0000.34,-000.25,0000.42,-000.15,-000.14,0000.07,23.5,00.0,0618.6,30.9
2020-01-05T00:37:00Z,00000380,01000600,-000.94,0000.80,0000.09,0000.04,-000.32,0000.17,0000.09,0000.08,-000.06,23.5,00.0,0618.6,31.0
2020-01-05T00:38:00Z,00000380,01000600,-000.85,0000.74,0000.22,0000.57,0000.10,-000.07,-000.14,-000.08,-000.13,23.5,00.0,0618.6,31.0
2020-01-05T00:39:00Z,00000380,01000600,0000.47,0000.42,0000.13,0000.10,-000.55,-000.17,0000.08,0000.06,-000.02,23.5,00.0,0618.6,30.9
2020-01-05T00:40:00Z,00000380,01000600,0001.63,0001.02,0000.22,0000.15,-000.33,0000.35,0000.08,-000.05,0000.10,23.5,00.0,0618.6,30.9
2020-01-05T00:41:00Z,00000380,01000600,0000.68,0000.28,0000.50,0000.85,-000.24,0000.49,-000.14,0000.06,0000.01,23.5,00.0,0618.5,30.9
2020-01-05T00:42:00Z,00000380,01000600,-000.38,0000.50,-000.07,-000.50,-000.42,0000.45,-000.02,0000.08,-000.00,23.5,00.0,0618.5,30.9
2020-01-05T00:43:00Z,00000380,01000600,0000.21,0000.87,0000.17,0000.43,0000.15,0000.51,0000.15,-000.01,-000.09,23.5,00.0,0618.6,30.9
2020-01-05T00:44:00Z,00000380,01000600,0000.11,0001.19,-000.06,0000.20,-000.25,0000.32,-000.13,-000.11,-000.01,23.5,00.0,0618.5,30.9
2020-01-05T00:45:00Z,00000380,01000600,-000.61,0000.40,0000.16,0000.36,-000.62,0000.64,0000.07,0000.03,0000.05,23.5,00.0,0618.5,30.9
2020-01-05T00:46:00Z,00000380,01000600,0001.28,0000.73,-000.12,-000.26,-000.22,0000.06,0000.09,0000.05,0000.12,23.5,00.0,0618.5,30.9
2020-01-05T00:47:00Z,00000380,01000600,0000.74,0000.58,0000.07,0000.14,-000.12,0000.25,-000.06,-000.14,-000.16,23.5,00.0,0618.5,30.9
2020-01-05T00:48:00Z,00000380,01000600,-000.39,0000.68,0000.31,0000.58,0000.06,0001.02,-000.00,0000.11,0000.11,23.5,00.0,0618.5,30.9
2020-01-05T00:49:00Z,00000380,01000600,0000.85,0001.05,-000.12,0000.33,0000.01,0000.00,-000.00,0000.03,0000.06,23.5,00.0,0618.5,30.9
2020-01-05T00:50:00Z,00000380,01000600,0000.90,0000.69,0000.54,0000.58,-000.35,0000.36,0000.03,0000.02,-000.11,23.5,00.0,0618.5,30.9
2020-01-05T00:51:00Z,00000380,01000600,0000.20,0000.68,0000.11,0001.28,-000.25,0000.21,-000.05,-000.01,-000.03,23.5,00.0,0618.5,30.9
2020-01-05T00:52:00Z,00000380,01000600,0000.13,0000.62,0000.37,0000.50,-000.47,0000.13,0000.02,-000.12,0000.11,23.5,00.0,0618.5,30.9
2020-01-05T00:53:00Z,00000380,01000600,-000.95,0001.16,0000.35,0000.55,-000.31,0000.32,0000.10,0000.06,-000.02,23.5,00.0,0618.5,30.9
2020-01-05T00:54:00Z,00000380,01000600,0001.94,0001.00,0000.19,0000.73,-000.52,0000.23,-000.14,-000.09,-000.04,23.5,00.0,0618.5,30.9
2020-01-05T00:55:00Z,00000380,01000600,-001.16,0000.76,-000.17,-000.29,-000.01,0000.31,0000.11,0000.19,0000.02,23.5,00.0,0618.5,30.9
2020-01-05T00:56:00Z,00000380,01000600,-000.30,0000.56,0000.48,-000.02,-000.14,0000.58,-000.09,-000.04,0000.02,23.5,00.0,0618.5,30.9
2020-01-05T00:57:00Z,00000380,41000600,,,,,,,,,,23.5,00.0,0618.5,30.9
2020-01-05T00:58:00Z,00000380,61000600,,,,,,,,,,23.6,00.0,0617.5,30.9
2020-01-05T00:59:00Z,00000380,21000600,,,,,,,,,,23.7,00.0,0617.5,30.9
2020-01-05T01:00:00Z,00000380,21000600,,,,,,,,,,23.7,00.0,0617.4,30.9
2020-01-05T01:01:00Z,00000380,21000600,,,,,,,,,,23.7,00.0,0617.4,30.9
2020-01-05T01:02:00Z,00000380,21000600,,,,,,,,,,23.7,00.0,0617.4,31.0
2020-01-05T01:03:00Z,00000380,61000600,,,,,,,,,,23.7,00.0,0617.4,31.0
2020-01-05T01:04:00Z,00000380,41000600,0001.36,0000.65,0000.46,0001.57,-000.09,-000.04,0000.05,-000.03,-000.05,23.6,00.0,0618.3,31.0
2020-01-05T01:05:00Z,00000380,01000600,0000.47,0000.80,0000.26,0000.61,0000.12,-000.08,-000.05,-000.06,0000.16,23.5,00.0,0618.4,31.0
2020-01-05T01:06:00Z,00000380,01000600,0000.35,0000.45,0000.84,-000.56,0000.18,-000.02,-000.10,0000.08,0000.08,23.5,00.0,0618.4,31.0
2020-01-05T01:07:00Z,00000380,01000600,0000.78,-000.04,0000.37,0000.62,-000.18,0000.16,0000.19,-000.08,-000.03,23.5,00.0,0618.4,30.9
2020-01-05T01:08:00Z,00000380,01000600,-000.05,-000.51,0000.21,-000.04,0000.07,-000.13,-000.04,0000.00,0000.04,23.5,00.0,0618.3,30.9
2020-01-05T01:09:00Z,00000380,01000600,0001.18,0000.56,0000.78,0000.55,0000.11,-000.10,-000.02,0000.01,-000.06,23.5,00.0,0618.3,30.9
2020-01-05T01:10:00Z,00000380,01000600,0000.44,0000.17,0000.14,-000.11,-000.05,-000.40,-000.09,0000.05,-000.03,23.5,00.0,0618.3,30.9
2020-01-05T01:11:00Z,00000380,01000600,-000.69,0000.58,0000.82,-000.57,0000.22,0000.01,0000.03,-000.11,-000.06,23.5,00.0,0618.3,31.0
2020-01-05T01:12:00Z,00000380,01000600,-000.30,-000.17,0000.55,-000.83,0000.05,-000.02,0000.02,0000.07,0000.06,23.5,00.0,0618.3,31.0
2020-01-05T01:13:00Z,00000380,01000600,-000.37,0000.13,0000.25,-000.06,0000.63,-000.22,0000.05,-000.09,-000.01,23.5,00.0,0618.3,31.0
2020-01-05T01:14:00Z,00000380,01000600,0000.36,0000.82,0000.48,0000.74,0000.29,-000.42,-000.01,0000.08,-000.02,23.5,00.0,0618.3,31.0
2020-01-05T01:15:00Z,00000380,01000600,-000.51,0000.15,0000.22,-000.50,-000.24,-000.29,0000.05,0000.15,-000.05,23.5,00.0,0618.3,30.9
2020-01-05T01:16:00Z,00000380,01000600,0000.30,0000.12,0000.73,-001.03,0000.16,-000.00,-000.09,-000.15,0000.02,23.6,00.0,0618.3,30.9
2020-01-05T01:17:00Z,00000380,01000600,0000.87,0000.49,0000.57,0000.11,0000.27,0000.53,0000.05,-000.03,0000.10,23.6,00.0,0618.3,31.0
2020-01-05T01:18:00Z,00000380,01000600,0001.46,0000.46,0000.74,-000.53,0000.38,-000.06,-000.10,0000.13,-000.03,23.6,00.0,0618.3,31.0
2020-01-05T01:19:00Z,00000380,01000600,0001.19,-000.29,0000.34,0000.04,0000.23,0000.13,0000.05,-000.11,-000.08,23.6,00.0,0618.3,31.0
2020-01-05T01:20:00Z,00000380,01000600,0000.17,-000.03,0000.19,-000.23,-000.06,0000.31,0000.02,-000.07,0000.04,23.6,00.0,0618.2,31.0
2020-01-05T01:21:00Z,00000380,01000600,0000.31,0000.20,0000.05,-000.52,-000.12,-000.20,-000.14,-000.01,0000.04,23.6,00.0,0618.2,31.0
2020-01-05T01:22:00Z,00000380,01000600,-000.56,0000.07,0000.59,-000.43,0000.34,0000.07,0000.05,-000.04,0000.04,23.6,00.0,0618.2,31.0
2020-01-05T01:23:00Z,00000380,01000600,0000.02,-000.01,0000.13,0000.27,0000.29,-000.21,-000.02,0000.02,-000.10,23.6,00.0,0618.2,31.0
2020-01-05T01:24:00Z,00000380,01000600,0000.82,0000.76,0000.86,-000.24,0000.24,-000.12,-000.07,0000.05,0000.03,23.6,00.0,0618.2,31.0
2020-01-05T01:25:00Z,00000380,01000600,0000.03,0000.15,0000.47,0000.06,-000.48,0000.06,0000.09,0000.01,0000.02,23.6,00.0,0618.2,31.0
2020-01-05T01:26:00Z,00000380,01000600,0000.36,0000.43,0000.26,0001.23,0000.15,0000.06,-000.05,-000.07,0000.01,23.6,00.0,0618.2,31.0
2020-01-05T01:27:00Z,00000380,01000600,0000.05,0000.09,0001.07,0000.10,0000.27,-000.09,-000.01,-000.08,-000.07,23.6,00.0,0618.2,31.0
2020-01-05T01:28:00Z,00000380,01000600,0001.42,-000.01,0000.45,0000.55,0000.21,-000.03,-000.01,0000.05,0000.00,23.6,00.0,0618.2,31.0
2020-01-05T01:29:00Z,00000380,01000600,0000.26,-000.16,0000.59,0000.71,0000.36,-000.55,0000.03,0000.10,0000.00,23.6,00.0,0618.2,31.0
2020-01-05T01:30:00Z,00000380,01000600,0000.14,0000.49,0001.04,0001.30,-000.38,-000.19,0000.04,0000.10,0000.04,23.6,00.0,0618.2,31.0
2020-01-05T01:31:00Z,00000380,01000600,0001.03,0000.29,-000.33,-000.12,0000.51,0000.17,-000.09,-000.10,-000.13,23.6,00.0,0618.2,31.0
2020-01-05T01:32:00Z,00000380,01000600,0001.32,0000.08,0000.44,0000.16,0000.34,-000.05,-000.05,0000.00,0000.15,23.6,00.0,0618.1,31.0
2020-01-05T01:33:00Z,00000380,01000600,0001.05,0000.45,0000.01,-000.46,0000.21,-000.75,0000.06,0000.01,-000.03,23.6,00.0,0618.1,31.0
2020-01-05T01:34:00Z,00000380,01000600,0000.93,0000.85,0000.17,0000.81,-000.01,0000.03,-000.08,-000.07,-000.02,23.6,00.0,0618.2,31.0
2020-01-05T01:35:00Z,00000380,01000600,0001.19,0000.47,0000.49,-000.55,0000.05,0000.42,-000.05,-000.02,-000.05,23.6,00.0,0618.2,31.0
2020-01-05T01:36:00Z,00000380,01000600,0001.01,0000.77,-000.05,0000.39,0000.06,-000.29,0000.08,0000.02,-000.10,23.6,00.0,0618.1,31.0
2020-01-05T01:37:00Z,00000380,01000600,0000.55,0000.26,0000.26,-000.32,-000.05,-000.02,0000.18,-000.03,0000.09,23.6,00.0,0618.1,31.0
2020-01-05T01:38:00Z,00000380,01000600,-001.65,0000.40,-000.03,-001.51,0000.15,-000.54,-000.06,0000.09,0000.13,23.6,00.0,0618.1,31.0
2020-01-05T01:39:00Z,00000380,01000600,0000.15,0000.61,0000.27,0000.13,0000.42,0000.10,-000.06,-000.07,-000.05,23.6,00.0,0618.1,31.0
2020-01-05T01:40:00Z,00000380,01000600,0001.97,0000.33,0000.96,0000.27,-000.05,-000.12,0000.08,0000.09,0000.05,23.7,00.0,0618.0,31.0
2020-01-05T01:41:00Z,00000380,01000600,-000.39,0000.67,0000.06,-000.96,0000.22,-000.21,-000.02,-000.05,-000.15,23.7,00.0,0618.0,31.0
2020-01-05T01:42:00Z,00000380,01000600,0000.73,0000.47,0000.02,-000.30,-000.23,-000.68,-000.01,-000.07,0000.10,23.7,00.0,0618.0,31.0
2020-01-05T01:43:00Z,00000380,01000600,0000.88,-000.42,0000.13,-000.78,-000.09,0000.10,-000.03,0000.01,-000.11,23.7,00.0,0618.0,31.0
2020-01-05T01:44:00Z,00000380,01000600,0000.35,-000.13,0000.19,0000.15,-000.00,-000.16,-000.03,0000.06,0000.13,23.7,00.0,0618.0,31.0
2020-01-05T01:45:00Z,00000380,01000600,0001.49,0000.87,0000.71,0000.04,0000.42,0000.14,0000.06,0000.03,-000.00,23.7,00.0,0618.0,31.0
2020-01-05T01:46:00Z,00000380,01000600,0002.15,0000.46,0000.51,-000.50,-000.24,-000.19,-000.01,0000.07,-000.03,23.7,00.0,0618.0,31.0
2020-01-05T01:47:00Z,00000380,01000600,0000.28,0000.23,0000.32,-000.48,-000.31,-000.31,-000.00,-000.03,0000.05,23.7,00.0,0618.0,31.0
2020-01-05T01:48:00Z,00000380,01000600,0001.16,0000.45,0000.42,-000.60,-000.05,-000.29,-000.05,0000.00,0000.05,23.7,00.0,0618.0,31.0
2020-01-05T01:49:00Z,00000380,01000600,-000.02,-000.08,0000.32,-000.44,-000.00,0000.07,0000.13,-000.03,-000.09,23.7,00.0,0617.9,31.0
2020-01-05T01:50:00Z,00000380,01000600,0000.19,0000.77,0000.58,-000.05,0000.20,0000.10,-000.10,-000.17,-000.04,23.7,00.0,0617.9,31.0
2020-01-05T01:51:00Z,00000380,01000600,0000.61,0000.46,0000.01,0000.43,0000.20,0000.05,0000.07,0000.21,0000.14,23.7,00.0,0617.9,31.0
2020-01-05T01:52:00Z,00000380,01000600,0001.36,0000.10,0000.11,-000.65,0000.52,-000.09,-000.12,-000.07,-000.03,23.7,00.0,0617.9,31.0
2020-01-05T01:53:00Z,00000380,01000600,-000.62,0000.22,0000.38,0000.34,0000.67,0000.44,0000.10,-000.01,0000.04,23.7,00.0,0617.9,31.0
2020-01-05T01:54:00Z,00000380,01000600,0001.41,0000.71,0000.35,0000.54,0000.22,-000.15,-000.07,0000.06,0000.04,23.7,00.0,0617.9,31.0
2020-01-05T01:55:00Z,00000380,01000600,0000.14,0000.23,0000.44,0000.44,-000.25,-000.01,0000.00,0000.04,-000.10,23.7,00.0,0617.9,31.0
2020-01-05T01:56:00Z,00000380,01000600,0000.27,0000.21,-000.33,-000.39,0000.19,-000.26,0000.18,0000.08,-000.00,23.7,00.0,0617.8,31.0
2020-01-05T01:57:00Z,00000380,41000600,,,,,,,,,,23.8,00.0,0617.8,31.0
2020-01-05T01:58:00Z,00000380,61000600,,,,,,,,,,23.8,00.0,0616.8,31.0
2020-01-05T01:59:00Z,00000380,21000600,,,,,,,,,,23.9,00.0,0616.8,31.0
2020-01-05T02:00:00Z,00000380,21000600,,,,,,,,,,23.9,00.0,0616.8,31.0
2020-01-05T02:01:00Z,00000380,21000600,,,,,,,,,,23.9,00.0,0616.8,31.0
2020-01-05T02:02:00Z,00000380,21000600,,,,,,,,,,23.9,00.0,0616.8,31.0
2020-01-05T02:03:00Z,00000380,61000600,,,,,,,,,,23.9,00.0,0616.8,31.0
2020-01-05T02:04:00Z,00000380,41000600,0000.02,0000.16,-000.07,-000.02,0000.07,-000.59,0000.05,-000.07,-000.05,23.8,00.0,0617.7,31.0
2020-01-05T02:05:00Z,00000380,01000600,0000.65,0000.60,0001.06,-000.68,0000.07,-000.10,0000.00,0000.09,0000.20,23.8,00.0,0617.7,31.0
2020-01-05T02:06:00Z,00000380,01000600,0000.20,0000.26,0000.03,-000.88,0000.16,-000.14,0000.05,0000.03,-000.13,23.8,00.0,0617.7,31.0
2020-01-05T02:07:00Z,00000380,01000600,0000.79,0000.56,-000.15,-000.57,-000.07,-000.35,-000.04,0000.03,-000.09,23.8,00.0,0617.7,31.0
2020-01-05T02:08:00Z,00000380,01000600,-000.48,0000.19,0000.26,-000.12,0000.72,-000.12,0000.02,-000.06,0000.07,23.7,00.0,0617.7,31.0
2020-01-05T02:09:00Z,00000380,01000600,0000.76,0000.85,0000.54,-000.09,0000.06,-000.02,-000.06,-000.11,-000.12,23.7,00.0,0617.7,31.0
2020-01-05T02:10:00Z,00000380,01000600,-000.79,0000.58,-000.11,-000.75,0000.13,0000.80,0000.02,0000.12,0000.03,23.7,00.0,0617.7,31.0
2020-01-05T02:11:00Z,00000380,01000600,0001.93,0000.67,0000.07,-001.45,0000.38,-000.38,0000.02,-000.16,0000.03,23.7,00.0,0617.7,31.0
2020-01-05T02:12:00Z,00000380,01000600,0000.42,0000.03,0000.88,0000.28,0000.67,-000.02,-000.10,0000.06,-000.04,23.7,00.0,0617.7,31.0
2020-01-05T02:13:00Z,00000380,01000600,-000.51,0000.93,0000.40,-001.25,0000.19,-000.21,0000.09,-000.08,0000.01,23.7,00.0,0617.7,31.0
2020-01-05T02:14:00Z,00000380,01000600,-000.15,0000.36,0000.28,-000.42,0000.20,-000.11,-000.06,0000.03,0000.00,23.7,00.0,0617.7,31.0
2020-01-05T02:15:00Z,00000380,01000600,0000.40,0000.16,0000.43,-000.24,0000.48,-000.31,-000.03,0000.10,-000.01,23.7,00.0,0617.6,31.0
2020-01-05T02:16:00Z,00000380,01000600,0000.80,-000.03,0000.38,0000.14,0000.10,0000.13,0000.01,-000.13,-000.02,23.7,00.0,0617.6,31.0
2020-01-05T02:17:00Z,00000380,01000600,-000.18,0000.68,0000.64,-000.23,0000.24,-000.07,-000.04,0000.03,0000.03,23.7,00.0,0617.6,31.0
2020-01-05T02:18:00Z,00000380,01000600,0000.14,-000.05,0000.07,-000.70,-000.09,0000.17,0000.08,0000.06,0000.14,23.7,00.0,0617.6,31.0
2020-01-05T02:19:00Z,00000380,01000600,-000.09,0000.74,-000.15,0000.52,-000.08,0000.30,-000.08,0000.08,-000.00,23.7,00.0,0617.6,31.0
2020-01-05T02:20:00Z,00000380,01000600,0000.90,0000.79,0000.25,0000.37,0000.17,-000.02,0000.00,-000.12,-000.12,23.7,00.0,0617.6,31.0
2020-01-05T02:21:00Z,00000380,01000600,0000.99,0000.12,-000.03,0000.29,-000.28,-000.31,0000.12,0000.03,0000.15,23.7,00.0,0617.6,31.0
2020-01-05T02:22:00Z,00000380,01000600,0000.78,0000.33,-000.11,0000.05,0000.40,-000.26,-000.05,-000.24,0000.01,23.7,00.0,0617.6,31.0
2020-01-05T02:23:00Z,00000380,01000600,0000.92,-000.04,0000.27,-000.73,0000.38,-000.05,-000.09,0000.19,-000.16,23.7,00.0,0617.5,31.0
2020-01-05T02:24:00Z,00000380,01000600,0000.78,0000.43,-000.12,0000.49,0000.57,-000.04,0000.12,0000.09,-000.05,23.7,00.0,0617.5,31.0
2020-01-05T02:25:00Z,00000380,01000600,0001.47,0000.57,-000.50,-000.81,0000.10,-000.24,-000.04,0000.01,0000.10,23.7,00.0,0617.5,31.0
2020-01-05T02:26:00Z,00000380,01000600,-000.85,0001.00,0000.10,-001.64,0000.10,0000.20,-000.05,-000.16,0000.02,23.6,00.0,0617.5,31.0
2020-01-05T02:27:00Z,00000380,01000600,0000.66,0001.02,-000.54,-001.66,0000.36,-000.47,-000.02,0000.11,-000.08,23.7,00.0,0617.5,31.0
2020-01-05T02:28:00Z,00000380,01000600,0001.36,0000.57,0000.29,0000.64,0000.17,-000.16,0000.06,-000.12,0000.08,23.7,00.0,0617.5,31.0
2020-01-05T02:29:00Z,00000380,01000600,-000.31,0000.30,0000.13,-000.21,-000.06,0000.09,-000.09,0000.05,-000.00,23.7,00.0,0617.5,30.9
2020-01-05T02:30:00Z,00000380,01000600,0000.06,0000.18,-000.25,0000.13,0000.34,-000.10,-000.04,-000.01,-000.03,23.6,00.0,0617.5,31.0
2020-01-05T02:31:00Z,00000380,01000600,0000.11,0000.29,0000.02,-000.44,-000.01,-000.14,0000.27,0000.03,-000.03,23.7,00.0,0617.5,31.0
2020-01-05T02:32:00Z,00000380,01000600,0000.37,0000.58,-000.12,-000.81,0000.03,0000.30,-000.29,-000.24,-000.12,23.7,00.0,0617.5,31.0
2020-01-05T02:33:00Z,00000380,01000600,0001.99,-000.26,0000.06,0000.23,0000.15,-000.08,0000.02,0000.05,0000.12,23.7,00.0,0617.5,31.0
2020-01-05T02:34:00Z,00000380,01000600,0001.01,0000.25,0000.13,0000.12,0000.19,0000.06,0000.17,0000.11,0000.11,23.7,00.0,0617.5,31.0
2020-01-05T02:35:00Z,00000380,01000600,-000.08,0000.11,0000.40,-000.31,0000.10,0000.54,-000.07,-000.11,-000.15,23.7,00.0,0617.4,31.0
2020-01-05T02:36:00Z,00000380,01000600,-000.24,-000.03,0000.11,-000.76,-000.17,0000.04,-000.11,-000.01,0000.06,23.7,00.0,0617.5,31.0
2020-01-05T02:37:00Z,00000380,01000600,0000.17,-000.66,0000.45,-000.38,0000.02,-000.11,-000.12,0000.04,-000.04,23.7,00.0,0617.4,31.0
2020-01-05T02:38:00Z,00000380,01000600,0000.50,0000.43,0000.28,-001.81,0000.25,0000.14,0000.08,-000.10,-000.02,23.7,00.0,0617.4,31.0
2020-01-05T02:39:00Z,00000380,01000600,0001.11,0000.60,0000.30,0000.72,0000.37,0000.03,-000.05,0000.08,0000.04,23.7,00.0,0617.4,31.0
2020-01-05T02:40:00Z,00000380,01000600,0000.14,0000.59,0000.59,-000.04,0000.00,-000.12,0000.01,0000.05,-000.10,23.6,00.0,0617.4,31.0
2020-01-05T02:41:00Z,00000380,01000600,-000.29,-000.25,0000.62,-000.52,0000.34,0000.34,-000.02,-000.14,0000.09,23.7,00.0,0617.4,31.0
2020-01-05T02:42:00Z,00000380,01000600,0001.83,0000.73,0000.02,-000.85,0000.14,-000.01,-000.00,0000.07,-000.16,23.7,00.0,0617.4,31.0
2020-01-05T02:43:00Z,00000380,01000600,0000.13,0000.56,0000.13,-001.01,-000.11,-000.06,-000.19,-000.03,0000.12,23.7,00.0,0617.4,31.0
2020-01-05T02:44:00Z,00000380,01000600,0001.21,-000.12,0000.35,-000.12,-000.06,0000.34,0000.16,-000.03,0000.03,23.7,00.0,0617.4,31.0
2020-01-05T02:45:00Z,00000380,01000600,0001.70,0000.47,0000.24,-000.63,0000.02,-000.53,0000.09,0000.12,-000.05,23.6,00.0,0617.4,31.0
2020-01-05T02:46:00Z,00000380,01000600,-000.52,0000.08,0000.80,-000.23,0000.36,-000.07,-000.02,-000.08,0000.01,23.7,00.0,0617.4,31.0
2020-01-05T02:47:00Z,00000380,01000600,-000.77,-000.03,0000.46,-000.49,0000.35,0000.39,0000.04,-000.06,0000.01,23.6,00.0,0617.4,31.0
2020-01-05T02:48:00Z,00000380,01000600,-000.33,0000.57,0000.81,-000.22,-000.07,-000.03,-000.01,0000.17,0000.05,23.6,00.0,0617.4,31.0
2020-01-05T02:49:00Z,00000380,01000600,-000.13,0000.29,-000.16,-000.49,0000.22,-000.18,-000.01,-000.14,0000.01,23.6,00.0,0617.4,31.0
2020-01-05T02:50:00Z,00000380,01000600,0000.57,0000.63,0000.03,-000.27,0000.15,0000.50,-000.08,0000.22,0000.03,23.6,00.0,0617.4,31.0
2020-01-05T02:51:00Z,00000380,01000600,0001.35,0000.22,0000.71,-000.13,0000.18,-000.13,0000.01,-000.26,0000.01,23.6,00.0,0617.3,31.0
2020-01-05T02:52:00Z,00000380,01000600,0000.06,-000.10,0000.35,-000.31,0000.29,0000.10,0000.08,0000.08,-000.09,23.6,00.0,0617.3,31.0
2020-01-05T02:53:00Z,00000380,01000600,0000.58,-000.22,0000.04,-000.94,0000.37,-000.15,-000.11,-000.09,0000.01,23.6,00.0,0617.3,30.9
2020-01-05T02:54:00Z,00000380,01000600,-000.20,-000.05,-000.01,-000.37,0000.10,0000.25,-000.06,0000.07,-000.08,23.6,00.0,0617.3,30.9
2020-01-05T02:55:00Z,00000380,01000600,-000.37,-000.49,0000.54,0000.18,0000.02,0000.40,0000.14,-000.03,0000.11,23.6,00.0,0617.3,30.9
2020-01-05T02:56:00Z,00000380,01000600,0000.24,0000.74,-000.19,0000.22,0000.25,0000.22,-000.06,0000.00,-000.21,23.6,00.0,0617.3,30.9
2020-01-05T02:57:00Z,00000380,41000600,,,,,,,,,,23.5,00.0,0617.4,30.9
2020-01-05T02:58:00Z,00000380,61000600,,,,,,,,,,23.7,00.0,0616.4,30.9
2020-01-05T02:59:00Z,00000380,21000600,,,,,,,,,,23.8,00.0,0616.3,30.9
2020-01-05T03:00:00Z,00000380,21000600,,,,,,,,,,23.8,00.0,0616.3,30.9
2020-01-05T03:01:00Z,00000380,21000600,,,,,,,,,,23.8,00.0,0616.3,30.9
2020-01-05T03:02:00Z,00000380,21000600,,,,,,,,,,23.8,00.0,0616.3,30.9
2020-01-05T03:03:00Z,00000380,61000600,,,,,,,,,,23.8,00.0,0616.3,30.9
2020-01-05T03:04:00Z,00000380,41000600,0000.32,0000.16,0000.26,0000.28,-000.40,0000.09,0000.03,0000.05,0000.13,23.7,00.0,0617.2,30.9
2020-01-05T03:05:00Z,00000380,01000600,-000.04,-000.24,0000.78,-000.87,0000.47,-000.05,-000.07,0000.03,-000.04,23.6,00.0,0617.2,30.9
2020-01-05T03:06:00Z,00000380,01000600,-001.32,-000.13,0000.50,0000.34,0000.11,-000.05,-000.04,0000.00,0000.00,23.6,00.0,0617.2,30.9
2020-01-05T03:07:00Z,00000380,01000600,0000.86,0000.55,0000.44,-000.12,0000.61,-000.12,0000.06,-000.11,-000.10,23.6,00.0,0617.2,30.9
2020-01-05T03:08:00Z,00000380,01000600,0000.62,0000.89,-000.34,0000.11,0000.38,-000.16,0000.06,0000.02,0000.10,23.6,00.0,0617.2,30.9
2020-01-05T03:09:00Z,00000380,01000600,-000.59,0000.40,0000.53,-000.29,0000.36,-000.07,-000.06,0000.06,-000.11,23.6,00.0,0617.2,30.9
2020-01-05T03:10:00Z,00000380,01000600,0000.37,0000.11,0000.49,-000.22,0000.20,0000.19,-000.02,0000.01,0000.09,23.6,00.0,0617.1,30.9